Weather History for Augusta, GA

Change the Weather History Date:

Tuesday, May 14, 2013

  Actual Average Record
Temperature  
Mean Temperature 64 °F -  
Max Temperature 77 °F 80 °F 89 °F (2014)
Min Temperature 50 °F 61 °F 50 °F (2013)
Degree Days  
Heating Degree Days 1    
Month to date heating degree days 23  
Growing Degree Days 14 (Base 50)    
Moisture  
Dew Point 37 °F    
Average Humidity 37    
Maximum Humidity 61    
Minimum Humidity 21    
Precipitation  
Precipitation 0.00 in - - ()
Month to date precipitation 1.41  
Year to date precipitation 18.34  
Sea Level Pressure  
Sea Level Pressure 30.20 in    
Wind  
Wind Speed 6 mph (WSW)    
Max Wind Speed 10 mph    
Max Gust Speed 18 mph    
Visibility 10 miles    
Events      
Averages and records for this station are not official NWS values.
T = Trace of Precipitation, MM = Missing Value Source: NWS Daily Summary

Daily Weather History Graph

Daily Weather History Graph

Search for Another Location

Airport:

Trip Planner

Search our weather history database for the weather conditions in past years. The results will help you decide how hot, cold, wet, or windy it might be!

Date:

Astronomy

May. 14, 2013 Rise Set
Actual Time 6:28 AM EDT 8:21 PM EDT
Civil Twilight 6:01 AM EDT 8:48 PM EDT
Nautical Twilight 5:27 AM EDT 9:21 PM EDT
Astronomical Twilight 4:52 AM EDT 9:57 PM EDT
Moon 10:06 AM EDT (5/14) No Moon Set
Length of Visible Light 14h 47m
Length of Day
13h 52m
Waxing Crescent, 19% of the Moon is Illuminated
May 14
Waxing Crescent
May 18
First Quarter
May 25
Full
May 31
Last Quarter
Jun 8
New

Hourly Weather History & Observations

Time (EDT) Temp. Dew Point Humidity Pressure Visibility Wind Dir Wind Speed Gust Speed Precip Events Conditions
12:53 AM 59.0 °F 35.1 °F 41% 30.20 in 10.0 mi NW 5.8 mph - N/A   Clear
1:53 AM 57.9 °F 33.1 °F 39% 30.20 in 10.0 mi North 6.9 mph - N/A   Clear
2:53 AM 55.9 °F 34.0 °F 44% 30.19 in 10.0 mi North 5.8 mph - N/A   Clear
3:53 AM 54.0 °F 35.1 °F 49% 30.19 in 10.0 mi NNW 5.8 mph - N/A   Clear
4:53 AM 53.1 °F 35.1 °F 50% 30.20 in 10.0 mi NNW 6.9 mph - N/A   Clear
5:53 AM 52.0 °F 36.0 °F 54% 30.20 in 10.0 mi North 5.8 mph - N/A   Clear
6:53 AM 50.0 °F 37.0 °F 61% 30.22 in 10.0 mi NNW 6.9 mph - N/A   Clear
7:53 AM 54.0 °F 36.0 °F 51% 30.25 in 10.0 mi ENE 4.6 mph - N/A   Clear
8:53 AM 60.1 °F 33.1 °F 36% 30.26 in 10.0 mi ENE 8.1 mph - N/A   Clear
9:53 AM 62.1 °F 34.0 °F 35% 30.27 in 10.0 mi ESE 8.1 mph - N/A   Clear
10:53 AM 66.0 °F 34.0 °F 30% 30.27 in 10.0 mi South 8.1 mph - N/A   Clear
11:53 AM 68.0 °F 30.9 °F 25% 30.28 in 10.0 mi SW 4.6 mph - N/A   Clear
12:53 PM 70.0 °F 32.0 °F 25% 30.27 in 10.0 mi West 4.6 mph - N/A   Clear
1:53 PM 71.1 °F 32.0 °F 24% 30.24 in 10.0 mi WSW 5.8 mph - N/A   Clear
2:53 PM 73.9 °F 32.0 °F 21% 30.21 in 10.0 mi South 9.2 mph - N/A   Clear
3:53 PM 75.0 °F 33.1 °F 22% 30.19 in 10.0 mi Variable 4.6 mph - N/A   Clear
4:53 PM 77.0 °F 36.0 °F 23% 30.17 in 10.0 mi Variable 5.8 mph - N/A   Clear
5:53 PM 75.9 °F 39.0 °F 26% 30.17 in 10.0 mi Variable 6.9 mph - N/A   Clear
6:53 PM 75.0 °F 41.0 °F 29% 30.15 in 10.0 mi SW 5.8 mph - N/A   Clear
7:53 PM 73.9 °F 42.1 °F 32% 30.15 in 10.0 mi SSW 4.6 mph - N/A   Clear
8:53 PM 70.0 °F 44.1 °F 39% 30.15 in 10.0 mi SSW 3.5 mph - N/A   Clear
9:53 PM 68.0 °F 45.0 °F 43% 30.16 in 10.0 mi SSW 3.5 mph - N/A   Clear
10:53 PM 66.0 °F 46.0 °F 48% 30.16 in 10.0 mi SSW 3.5 mph - N/A   Clear
11:53 PM 66.0 °F 46.0 °F 48% 30.14 in 10.0 mi SSW 6.9 mph - N/A   Clear